Showing default

GSTAR 3, 19483

Orbit data source: Space-Track

GSTAR 3, 19483 is a payload satellite owned by GTE (US) in GEO that was launched on Thu, 08 Sep 1988 UTC via an ARIANE 3 launch vehicle from the French Guiana (FRGUI). Payload-class satellites include a variety of spacecraft equipped with specific instruments for various scientific and technological missions. These include communications satellites like Starlink; space stations such as the ISS; scientific satellites like the Hubble; Earth observation satellites from companies like Planet Labs, Umbra, and HawkEye 360; GPS; miniature CubeSats for education and research; and military/defense satellites.

Loading next visibility...
Identifier
19483, 1988-081A
Orbit
GEO
Country
Flag of USUS
Related business
Manufacturer
GE/East Windsor
Mission
Commercial Communications
Bus & Motor
AS3000, TE-M-700-17
Mass
1,243 kg wet, ~370 kg dry
Launch date (UTC)
1988-09-08 (37 years ago)
Launch vehicle
ARIANE 3
Launch site
French Guiana (FRGUI)
Object type
Payload
Rocket body
Debris
Shape & HBR
Box + 2 Pan, 7.2 m
Radar Cross Section
6.702 m², Large (>1 m²)

Expand to show TLE details & history
Last TLE update: 20 hours ago

TLE from 20 hours ago
0 GSTAR 3
1 19483U 88081A   25260.20513818 -.00000117  00000-0  00000-0 0  9993
2 19483  11.5554 320.4510 0008373 209.4934 155.1554  1.00272248131866
Epoch: 2025-09-17T04:55Z
TLE epoch observation values (Epoch: 2025-09-17T04:55:23.938Z)
Latitude
0.93363°
Longitude
-105.1892°
Altitude
35,818.084 km
Speed
3.072 km/s
True Right ascension
21h 40m 10s
True Declination
0° 55' 58"
Sunlit
Object was in daylight at epoch
Visualization orbit readout
Latitude
Unknown
Longitude
Unknown
Altitude
Unknown
Speed
Unknown
Apparent Right ascension
Unknown
Apparent Declination
Unknown
Sunlit
N/A
Visualization observer readout
Local Sidereal Time
17:34:33
Azimuth
Unknown
Elevation
Unknown
Doppler factor
Unknown
Orbital elements
Apogee altitude
35,822.778 km
Perigee altitude
35,752.167 km
Semi-major axis
42,165.61 km
Eccentricity
0.00084
Inclination
11.5554°
RAAN
320.451°
Arg. of periapsis
209.4934°
True anomaly
155.19567°
Mean anomaly
155.1554°
Eccentric anomaly
155.17554°
Mean motion
0.25067 °/min
Orbital period
1,436.14 mins
BSTAR
0
Loading maneuver chart data...
Computing Atmospheric mass density...
Loading historical data...
Loading historical data...
Loading historical data...
Loading historical data...
Loading historical data...
Loading historical data...
Loading historical data...

Documentation

Showing up to 5 results
|